Location: Hope
(40.9110°N, 74.9680°W)
Time: 01:52:15
(UTC-05:00)

ISS - Visible Passes

Search period start: 09 December 2022 00:00
Search period end: 19 December 2022 00:00
Orbit: 414 x 420 km, 51.6° (Epoch: 09 December)

Date Brightness Start Highest point End Pass type
(mag) Time Alt. Az. Time Alt. Az. Time Alt. Az.
10 Dec -0.3 17:20:17 10° WSW 17:21:45 12° SW 17:23:13 10° SSW visible
16 Dec -0.5 06:01:01 10° SSE 06:02:52 14° SE 06:04:43 10° E visible
18 Dec -2.3 05:59:13 10° SSW 06:02:22 39° SE 06:05:31 10° ENE visible
